Weather in Alexandrovka

Ukraine / Mykolaiv District     47°41′43″N   31°16′31″E
temp.,
°C
wind,
m/s
gust,
m/s
humid.,
%
clouds,
%
prec.,
mm/h
press.,
hPa
HPBL,
m
20 september, mon
mon2000:00+11wnw4107218 0.0 1011649
03:00+9w49775 0.0 1011486
06:00+8wsw5108266 0.0 1012488
09:00+11w686687 0.0 10121054
12:00+12w795997 0.0 10131106
15:00+15wnw684944 0.0 10121497
18:00+14nw5652100 0.0 10131448
21:00+12nnw3669100 0.0 1015331
21 september, tue
tue2100:00+11nw2573100 0.0 1015230
03:00+10nw4873100 0.0 1015636
06:00+9wnw487396 0.0 1016726
09:00+9nw6872100 0.1 1017905
12:00+10wnw785686 0.0 10181436
15:00+10nw8106089 0.1 10181286
18:00+9nw71168100 0.0 10181155
21:00+9nw6970100 0.0 10191124
22 september, wed
wed2200:00+8wnw6973100 0.0 10191145
03:00+7nw6880100 0.1 10181022
06:00+7nw5884100 0.0 1018849
09:00+7wnw5784100 0.1 1018942
12:00+9wnw5673100 0.1 10171177
15:00+10nw5762100 0.1 10171167
18:00+10nnw3562100 0.0 1016851
21:00+8nnw236997 0.0 1017137
23 september, thu
thu2300:00+8nnw2475100 0.0 1016342
03:00+7nw2480100 0.1 1015346
06:00+7nw3579100 0.2 1015868
09:00+7nw3580100 0.3 1016825
12:00+8nnw4472100 0.1 1016886
15:00+9nnw556399 0.2 10151098
18:00+9nw566660 0.1 1016907
21:00+6nw22857 0.1 101629
24 september, fri
fri2400:00+5w22875 0.0 101613
03:00+5sw22865 0.0 101521
06:00+4ssw3485100 0.0 101465
09:00+8ssw41068100 0.0 1014300
12:00+15sw81143100 0.0 1011998
15:00+16wsw71145100 0.0 10101261
18:00+12sw51374100 0.9 1010534
21:00+13wsw51270100 1.4 1011405